Latrobe, PA

5:50 PM EDT on August 24, 2019 (GMT -0400)
Arnold Palmer Regional

Weather History for KLBE - May, 2019

Change the Weather History Date:

Friday, May 31, 2019

  Actual Average Record
Temperature  
Mean Temperature 67 °F -  
Max Temperature 75 °F 70 °F 89 °F (2006)
Min Temperature 59 °F 51 °F 33 °F (2001)
Cooling Degree Days 2    
Growing Degree Days 17 (Base 50)    
Moisture  
Dew Point 60 °F    
Average Humidity 87    
Maximum Humidity 100    
Minimum Humidity 47    
Precipitation  
Precipitation 0.00 in - - ()
Sea Level Pressure  
Sea Level Pressure 29.86 in    
Wind  
Wind Speed 4 mph (West)    
Max Wind Speed 14 mph    
Max Gust Speed -    
Visibility 10 miles    
Events      
Averages and records for this station are not official NWS values.
T = Trace of Precipitation, MM = Missing Value Source: NWS Daily Summary

Daily Weather History Graph

Daily Weather History Graph

Search for Another Location

Airport or City:

Astronomy

May. 31, 2019 Rise Set
Actual Time 5:50 AM EDT 8:40 PM EDT
Civil Twilight 5:18 AM EDT 9:12 PM EDT
Nautical Twilight 4:37 AM EDT 9:53 PM EDT
Astronomical Twilight 3:51 AM EDT 10:40 PM EDT
Moon 4:24 AM EDT (5/31) 5:47 PM EDT (5/31)
Length of Visible Light 15h 54m
Length of Day
14h 49m
Waning Crescent, 9% of the Moon is Illuminated
May 31
Waning Crescent
Jun 3
New
Jun 10
First Quarter
Jun 17
Full
Jun 25
Last Quarter

Hourly Weather History & Observations

Time (EDT) Temp. Dew Point Humidity Pressure Visibility Wind Dir Wind Speed Gust Speed Precip Events Conditions
12:15 AM 64.4 °F 64.4 °F 100% 29.82 in 10.0 mi SW 6.9 mph - N/A   Overcast
12:35 AM 64.4 °F 64.4 °F 100% 29.82 in 10.0 mi SW 5.8 mph - N/A   Mostly Cloudy
12:55 AM 64.4 °F 64.4 °F 100% 29.83 in 10.0 mi West 4.6 mph - N/A   Mostly Cloudy
1:15 AM 64.4 °F 64.4 °F 100% 29.82 in 10.0 mi West 4.6 mph - N/A   Mostly Cloudy
1:35 AM 62.6 °F 62.6 °F 100% 29.83 in 10.0 mi West 4.6 mph - N/A   Mostly Cloudy
1:55 AM 62.6 °F 62.6 °F 100% 29.83 in 10.0 mi Calm Calm - N/A   Scattered Clouds
2:15 AM 62.6 °F 62.6 °F 100% 29.82 in 10.0 mi Calm Calm - N/A   Mostly Cloudy
2:35 AM 62.6 °F 62.6 °F 100% 29.82 in 10.0 mi Calm Calm - N/A   Mostly Cloudy
2:55 AM - - N/A% 29.82 in 10.0 mi Calm Calm - N/A   Overcast
3:15 AM 60.8 °F 60.8 °F 100% 29.83 in 10.0 mi Calm Calm - N/A   Overcast
3:35 AM 60.8 °F 60.8 °F 100% 29.83 in 10.0 mi Calm Calm - N/A   Mostly Cloudy
3:55 AM 60.8 °F 60.8 °F 100% 29.84 in 10.0 mi Calm Calm - N/A   Mostly Cloudy
4:15 AM 60.8 °F 60.8 °F 100% 29.84 in 10.0 mi WSW 3.5 mph - N/A   Mostly Cloudy
4:35 AM 59.0 °F 59.0 °F 100% 29.84 in 10.0 mi Calm Calm - N/A   Partly Cloudy
4:55 AM 59.0 °F 59.0 °F 100% 29.85 in 10.0 mi Calm Calm - N/A   Clear
5:15 AM 59.0 °F 59.0 °F 100% 29.85 in 10.0 mi Calm Calm - N/A   Clear
5:35 AM 59.0 °F 59.0 °F 100% 29.85 in 10.0 mi SSE 4.6 mph - N/A   Clear
5:55 AM 59.0 °F 59.0 °F 100% 29.85 in 10.0 mi Calm Calm - N/A   Clear
6:51 AM 59.0 °F 59.0 °F 100% 29.87 in 20.0 mi SSW 4.6 mph - N/A   Clear
7:51 AM 60.8 °F 60.8 °F 100% 29.89 in 8.0 mi SW 5.8 mph - N/A   Mostly Cloudy
8:51 AM 64.4 °F 64.4 °F 100% 29.89 in 8.0 mi Calm Calm - N/A   Mostly Cloudy
9:31 AM 66.2 °F 62.6 °F 88% 29.90 in 10.0 mi WSW 5.8 mph - N/A   Scattered Clouds
9:51 AM 68.0 °F 62.6 °F 83% 29.90 in 10.0 mi SSW 6.9 mph - N/A   Scattered Clouds
10:51 AM 69.8 °F 59.0 °F 68% 29.91 in 10.0 mi SSW 11.5 mph - N/A   Partly Cloudy
11:51 AM 71.6 °F 59.0 °F 64% 29.91 in 10.0 mi West 11.5 mph - N/A   Partly Cloudy
12:53 PM 73.4 °F 57.2 °F 57% 29.89 in 10.0 mi West 8.1 mph - N/A   Partly Cloudy
1:53 PM 73.4 °F 55.4 °F 53% 29.88 in 10.0 mi WNW 8.1 mph - N/A   Partly Cloudy
2:53 PM 75.2 °F 55.4 °F 50% 29.87 in 10.0 mi WNW 11.5 mph - N/A   Partly Cloudy
3:53 PM 75.2 °F 57.2 °F 53% 29.86 in 10.0 mi WNW 5.8 mph - N/A   Partly Cloudy
4:50 PM 75.2 °F 55.4 °F 50% 29.85 in 10.0 mi WNW 13.8 mph - N/A   Mostly Cloudy
5:50 PM 75.2 °F 53.6 °F 47% 29.86 in 10.0 mi NW 11.5 mph - N/A   Clear
6:50 PM 73.4 °F 55.4 °F 53% 29.85 in 10.0 mi NW 9.2 mph - N/A   Clear
7:50 PM 71.6 °F 55.4 °F 57% 29.86 in 10.0 mi NNW 4.6 mph - N/A   Clear
8:50 PM 68.0 °F 59.0 °F 73% 29.86 in 10.0 mi Calm Calm - N/A   Clear
9:50 PM 64.4 °F 59.0 °F 83% 29.87 in 10.0 mi Calm Calm - N/A   Clear
10:15 PM 60.8 °F 60.8 °F 100% 29.89 in 10.0 mi Calm Calm - N/A   Clear
10:35 PM 60.8 °F 60.8 °F 100% 29.89 in 10.0 mi Calm Calm - N/A   Clear
10:55 PM 60.8 °F 60.8 °F 100% 29.89 in 10.0 mi Calm Calm - N/A   Clear
11:15 PM 60.8 °F 59.0 °F 94% 29.88 in 10.0 mi Calm Calm - N/A   Clear
11:35 PM 59.0 °F 59.0 °F 100% 29.88 in 10.0 mi Calm Calm - N/A   Clear
11:55 PM 59.0 °F 59.0 °F 100% 29.87 in 10.0 mi Calm Calm - N/A   Clear